| time (UTC) | temp F | wind direction | speed MPH | gust MPH | rain 1hr in | rain 24hr in | rain mn in | humidity % | barometer mb |
| 20260902000125 | 56 | 223 | 1.0 | 6.0 | 0.00 | 0.16 | 0.00 | 84 | 1005.7 |
| 20260901233055 | 57 | 215 | 1.0 | 3.0 | 0.00 | 0.16 | 0.00 | 83 | 1005.7 |
| 20260901230105 | 58 | 216 | 1.0 | 4.0 | 0.00 | 0.16 | 0.00 | 83 | 1005.6 |
| 20260901223056 | 58 | 208 | 1.0 | 5.0 | 0.00 | 0.16 | 0.00 | 82 | 1005.5 |
| 20260901220046 | 58 | 218 | 1.0 | 4.0 | 0.00 | 0.16 | 0.00 | 81 | 1005.5 |
| 20260901213115 | 59 | 179 | 1.0 | 3.0 | 0.00 | 0.16 | 0.16 | 79 | 1005.4 |
| 20260901210106 | 60 | 232 | 0.0 | 2.0 | 0.00 | 0.16 | 0.16 | 77 | 1005.3 |
| 20260901203116 | 61 | 217 | 0.0 | 2.0 | 0.00 | 0.16 | 0.16 | 75 | 1005.2 |
| 20260901200106 | 62 | 184 | 1.0 | 3.0 | 0.00 | 0.16 | 0.16 | 73 | 1005.1 |
| 20260901193037 | 63 | 254 | 0.0 | 3.0 | 0.00 | 0.16 | 0.16 | 69 | 1005.1 |
| 20260901190026 | 64 | 271 | 1.0 | 5.0 | 0.00 | 0.16 | 0.16 | 68 | 1004.9 |
| 20260901183018 | 64 | 251 | 2.0 | 6.0 | 0.00 | 0.16 | 0.16 | 67 | 1004.7 |
| 20260901180107 | 65 | 211 | 1.0 | 3.0 | 0.00 | 0.16 | 0.16 | 66 | 1004.3 |
| 20260901173057 | 67 | 250 | 2.0 | 5.0 | 0.00 | 0.16 | 0.16 | 64 | 1004.2 |
| 20260901170047 | 68 | 264 | 1.0 | 6.0 | 0.00 | 0.16 | 0.16 | 63 | 1004.1 |
| 20260901163038 | 69 | 261 | 1.0 | 5.0 | 0.00 | 0.16 | 0.16 | 63 | 1004.0 |
| 20260901160030 | 69 | 269 | 2.0 | 6.0 | 0.00 | 0.16 | 0.16 | 64 | 1003.8 |
| 20260901153019 | 67 | 147 | 1.0 | 5.0 | 0.00 | 0.16 | 0.16 | 76 | 1003.8 |
| 20260901150110 | 67 | 124 | 2.0 | 4.0 | 0.00 | 0.16 | 0.16 | 78 | 1003.9 |
| 20260901143142 | 68 | 198 | 1.0 | 3.0 | 0.00 | 0.16 | 0.16 | 80 | 1004.0 |
| 20260901140050 | 66 | 121 | 1.0 | 3.0 | 0.00 | 0.16 | 0.16 | 85 | 1004.1 |
| 20260901133101 | 66 | 148 | 1.0 | 3.0 | 0.01 | 0.16 | 0.16 | 83 | 1004.2 |
| 20260901130035 | 67 | 138 | 1.0 | 3.0 | 0.01 | 0.16 | 0.16 | 84 | 1004.1 |
| 20260901123020 | 64 | 109 | 1.0 | 3.0 | 0.15 | 0.15 | 0.15 | 79 | 1004.1 |
| 20260901120110 | 71 | 305 | 2.0 | 7.0 | 0.15 | 0.15 | 0.15 | 63 | 1004.1 |
| 20260901113100 | 70 | 242 | 2.0 | 5.0 | 0.00 | 0.00 | 0.00 | 64 | 1003.9 |
| 20260901110050 | 71 | 272 | 2.0 | 7.0 | 0.00 | 0.00 | 0.00 | 63 | 1003.9 |
| 20260901103040 | 71 | 217 | 2.0 | 6.0 | 0.00 | 0.00 | 0.00 | 65 | 1003.8 |
| 20260901100031 | 68 | 202 | 2.0 | 8.0 | 0.00 | 0.00 | 0.00 | 68 | 1003.8 |
| 20260901093021 | 68 | 208 | 1.0 | 5.0 | 0.00 | 0.00 | 0.00 | 70 | 1003.6 |
| 20260901090113 | 64 | 214 | 0.0 | 3.0 | 0.00 | 0.00 | 0.00 | 74 | 1003.7 |
| 20260901083101 | 65 | 322 | 1.0 | 5.0 | 0.00 | 0.00 | 0.00 | 72 | 1003.6 |
| 20260901080051 | 66 | 216 | 1.0 | 3.0 | 0.00 | 0.00 | 0.00 | 74 | 1003.4 |
| 20260901073041 | 64 | 162 | 1.0 | 3.0 | 0.00 | 0.00 | 0.00 | 77 | 1003.3 |
| 20260901070031 | 64 | 250 | 1.0 | 6.0 | 0.00 | 0.00 | 0.00 | 80 | 1003.1 |
| 20260901063021 | 62 | 250 | 1.0 | 5.0 | 0.00 | 0.00 | 0.00 | 92 | 1003.1 |
| 20260901060111 | 59 | 238 | 0.0 | 3.0 | 0.00 | 0.00 | 0.00 | 98 | 1003.1 |
| 20260901053101 | 57 | 193 | 0.0 | 2.0 | 0.00 | 0.00 | 0.00 | 99 | 1003.0 |
| 20260901050051 | 56 | 90 | 0.0 | 1.0 | 0.00 | 0.00 | 0.00 | 97 | 1003.0 |
| 20260901043042 | 55 | 90 | 0.0 | 1.0 | 0.00 | 0.00 | 0.00 | 96 | 1002.9 |
| 20260901040051 | 55 | 142 | 0.0 | 2.0 | 0.00 | 0.00 | 0.00 | 96 | 1002.9 |
| 20260901033041 | 56 | 180 | 0.0 | 2.0 | 0.00 | 0.00 | 0.00 | 96 | 1002.9 |
| 20260901030113 | 57 | 180 | 0.0 | 1.0 | 0.00 | 0.00 | 0.00 | 96 | 1002.8 |
| 20260901023101 | 57 | 180 | 0.0 | 2.0 | 0.00 | 0.00 | 0.00 | 96 | 1002.7 |
| 20260901020051 | 57 | 180 | 0.0 | 1.0 | 0.00 | 0.00 | 0.00 | 96 | 1002.7 |
| 20260901013042 | 57 | 180 | 0.0 | 1.0 | 0.00 | 0.00 | 0.00 | 95 | 1002.7 |
| 20260901010032 | 57 | 180 | 0.0 | 2.0 | 0.00 | 0.00 | 0.00 | 94 | 1002.8 |